Weather History for Sable Island, NS

Change the Weather History Date:

Wednesday, September 19, 2012

  Actual Average Record
Temperature  
Mean Temperature 66 °F -  
Max Temperature 70 °F 63 °F 70 °F (2012)
Min Temperature 62 °F 55 °F 43 °F (2013)
Cooling Degree Days 1    
Growing Degree Days 16 (Base 50)    
Moisture  
Dew Point 60 °F    
Average Humidity 78    
Maximum Humidity 88    
Minimum Humidity 64    
Precipitation  
Precipitation 0.00 in - - ()
Sea Level Pressure  
Sea Level Pressure 30.24 in    
Wind  
Wind Speed 14 mph ()    
Max Wind Speed 18 mph    
Max Gust Speed 22 mph    
Visibility 8.3 miles    
Events      
Averages and records for this station are not official NWS values.
T = Trace of Precipitation, MM = Missing Value Source: Averaged Metar Reports

Daily Weather History Graph

Daily Weather History Graph

Search for Another Location

Airport:

Trip Planner

Search our weather history database for the weather conditions in past years. The results will help you decide how hot, cold, wet, or windy it might be!

Date:

Astronomy

Sep. 19, 2012 Rise Set
Actual Time 6:44 AM ADT 7:02 PM ADT
Civil Twilight 6:15 AM ADT 7:30 PM ADT
Nautical Twilight 5:41 AM ADT 8:04 PM ADT
Astronomical Twilight 5:06 AM ADT 8:39 PM ADT
Moon 10:59 AM ADT (9/19) 8:56 PM ADT (9/19)
Length of Visible Light 13h 15m
Length of Day
12h 17m
Waxing Crescent, 16% of the Moon is Illuminated
Sep 19
Waxing Crescent
Sep 22
First Quarter
Sep 30
Full
Oct 8
Last Quarter
Oct 15
New

Hourly Weather History & Observations

Time (ADT) Temp. Dew Point Humidity Pressure Visibility Wind Dir Wind Speed Gust Speed Precip Events Conditions
12:00 AM 64 °F 55 °F 64% 30.28 in 9 mi South 15.0 mph - -  
12:00 AM 64.4 °F 55.4 °F 73% 30.28 in 9.0 mi South 16.1 mph - N/A   Unknown
2:00 AM 64.4 °F 55.4 °F 73% 30.29 in 9.0 mi South 13.8 mph - N/A   Unknown
3:00 AM 64 °F 57 °F 70% 30.28 in 9 mi South 12.7 mph - -  
3:00 AM 64.4 °F 57.2 °F 77% 30.28 in 9.0 mi South 13.8 mph - N/A   Unknown
4:00 AM 64.4 °F 57.2 °F 77% 30.27 in 9.0 mi South 16.1 mph - N/A   Unknown
5:00 AM 64.4 °F 57.2 °F 77% 30.26 in 9.0 mi South 13.8 mph - N/A   Unknown
6:00 AM 64 °F 58 °F 75% 30.25 in 9 mi SSE 13.8 mph - -  
6:00 AM 64.4 °F 57.2 °F 77% 30.25 in 9.0 mi SSE 13.8 mph - N/A   Unknown
7:00 AM 64.4 °F 57.2 °F 77% 30.25 in 9.0 mi SSE 16.1 mph - N/A   Unknown
8:00 AM 66.2 °F 59.0 °F 78% 30.25 in 9.0 mi SSE 16.1 mph - N/A   Unknown
9:00 AM 67 °F 59 °F 70% 30.25 in 9 mi SSE 18.4 mph - -  
9:00 AM 66.2 °F 59.0 °F 78% 30.25 in 9.0 mi SSE 18.4 mph - N/A   Unknown
10:00 AM 68.0 °F 60.8 °F 78% 30.25 in 9.0 mi SSE 16.1 mph - N/A   Unknown
11:00 AM 69.8 °F 60.8 °F 73% 30.25 in 9.0 mi SSE 18.4 mph - N/A   Unknown
12:00 PM 70 °F 62 °F 69% 30.24 in 9 mi SSE 16.1 mph - -  
12:00 PM 69.8 °F 62.6 °F 78% 30.24 in 9.0 mi SSE 16.1 mph - N/A   Unknown
1:00 PM 69.8 °F 62.6 °F 78% 30.24 in 9.0 mi SSE 16.1 mph - N/A   Unknown
2:00 PM 69.8 °F 62.6 °F 78% 30.23 in 9.0 mi SSE 18.4 mph - N/A   Unknown
3:00 PM 70 °F 63 °F 72% 30.23 in 9 mi SSE 17.3 mph - -  
3:00 PM 69.8 °F 62.6 °F 78% 30.23 in 9.0 mi SSE 16.1 mph - N/A   Unknown
4:00 PM 69.8 °F 62.6 °F 78% 30.22 in 8.0 mi South 17.3 mph - N/A   Unknown
5:00 PM 68.0 °F 62.6 °F 83% 30.22 in 8.0 mi South 18.4 mph - N/A   Unknown
6:00 PM 68 °F 62 °F 75% 30.22 in 7 mi SSE 18.4 mph - -  
6:00 PM 68.0 °F 62.6 °F 83% 30.22 in 8.0 mi SSE 16.1 mph 21.9 mph N/A   Unknown
7:00 PM 66.2 °F 62.6 °F 88% 30.21 in 7.0 mi SSE 17.3 mph - N/A   Unknown
8:00 PM 66.2 °F 62.6 °F 88% 30.22 in 6.0 mi SSE 16.1 mph - N/A   Clear
9:00 PM 66 °F 63 °F 85% 30.22 in 6 mi SSE 18.4 mph - -  
9:00 PM 66.2 °F 62.6 °F 88% 30.22 in 6.0 mi SSE 18.4 mph - N/A   Clear
10:00 PM 66.2 °F 62.6 °F 88% 30.22 in 6.0 mi SSE 18.4 mph - N/A   Clear
11:00 PM 66.2 °F 62.6 °F 88% 30.21 in 6.0 mi SSE 18.4 mph - N/A   Unknown